Weather History for Corinth, MS

Change the Weather History Date:

Friday, November 1, 2013

  Actual Average Record
Temperature  
Mean Temperature 60 °F -  
Max Temperature 71 °F 72 °F 86 °F (1935)
Min Temperature 48 °F 48 °F 24 °F (1930)
Degree Days  
Heating Degree Days 6    
Growing Degree Days 10 (Base 50)    
Moisture  
Dew Point 48 °F    
Average Humidity 71    
Maximum Humidity 100    
Minimum Humidity 31    
Precipitation  
Precipitation 0.00 in - - ()
Sea Level Pressure  
Sea Level Pressure 29.83 in    
Wind  
Wind Speed 6 mph (WSW)    
Max Wind Speed 13 mph    
Max Gust Speed 20 mph    
Visibility 9 miles    
Events Fog    
Averages and records for this station are not official NWS values.
T = Trace of Precipitation, MM = Missing Value Source: NWS Daily Summary

Daily Weather History Graph

Daily Weather History Graph

Search for Another Location

Airport:

Trip Planner

Search our weather history database for the weather conditions in past years. The results will help you decide how hot, cold, wet, or windy it might be!

Date:

Astronomy

Nov. 01, 2013 Rise Set
Actual Time 7:15 AM CDT 5:59 PM CDT
Civil Twilight 6:49 AM CDT 6:26 PM CDT
Nautical Twilight 6:19 AM CDT 6:56 PM CDT
Astronomical Twilight 5:49 AM CDT 7:25 PM CDT
Moon 5:11 AM CDT (11/1) 4:49 PM CDT (11/1)
Length of Visible Light 11h 36m
Length of Day
10h 44m
Waning Crescent, 4% of the Moon is Illuminated
Nov 1
Waning Crescent
Nov 3
New
Nov 9
First Quarter
Nov 17
Full
Nov 25
Last Quarter

Hourly Weather History & Observations

Time (CDT) Temp. Dew Point Humidity Pressure Visibility Wind Dir Wind Speed Gust Speed Precip Events Conditions
12:10 AM 62.6 °F 57.2 °F 82% 29.76 in 10.0 mi West 12.7 mph 19.6 mph N/A   Overcast
12:30 AM 60.8 °F 57.2 °F 88% 29.77 in 10.0 mi West 9.2 mph 16.1 mph N/A   Scattered Clouds
12:50 AM 60.8 °F 55.4 °F 82% 29.78 in 10.0 mi West 9.2 mph - N/A   Clear
1:10 AM 59.0 °F 55.4 °F 88% 29.78 in 10.0 mi West 10.4 mph - N/A   Clear
1:30 AM 59.0 °F 55.4 °F 88% 29.79 in 10.0 mi West 8.1 mph - N/A   Clear
1:50 AM 59.0 °F 55.4 °F 88% 29.79 in 10.0 mi West 6.9 mph - N/A   Clear
2:10 AM 59.0 °F 55.4 °F 88% 29.80 in 10.0 mi WSW 4.6 mph - N/A   Clear
2:30 AM 57.2 °F 53.6 °F 88% 29.80 in 10.0 mi West 4.6 mph - N/A   Clear
2:50 AM 57.2 °F 53.6 °F 88% 29.80 in 10.0 mi West 4.6 mph - N/A   Clear
3:10 AM 57.2 °F 53.6 °F 88% 29.81 in 10.0 mi WSW 4.6 mph - N/A   Clear
3:30 AM 57.2 °F 53.6 °F 88% 29.81 in 10.0 mi WSW 4.6 mph - N/A   Clear
3:50 AM 55.4 °F 53.6 °F 94% 29.81 in 10.0 mi WSW 4.6 mph - N/A   Clear
4:10 AM 55.4 °F 53.6 °F 94% 29.82 in 10.0 mi WSW 3.5 mph - N/A   Clear
4:30 AM 55.4 °F 51.8 °F 88% 29.82 in 10.0 mi WSW 3.5 mph - N/A   Clear
4:50 AM 53.6 °F 51.8 °F 94% 29.82 in 10.0 mi West 5.8 mph - N/A   Clear
5:10 AM 53.6 °F 50.0 °F 88% 29.83 in 10.0 mi West 4.6 mph - N/A   Clear
5:30 AM 53.6 °F 50.0 °F 88% 29.83 in 10.0 mi Calm Calm - N/A   Clear
5:50 AM 53.6 °F 50.0 °F 88% 29.83 in 10.0 mi Calm Calm - N/A   Clear
6:10 AM 50.0 °F 50.0 °F 100% 29.83 in 10.0 mi Calm Calm - N/A   Clear
6:30 AM 50.0 °F 48.2 °F 94% 29.83 in 2.5 mi Calm Calm - N/A   Clear
6:50 AM 48.2 °F 48.2 °F 100% 29.83 in 0.5 mi SSE 4.6 mph - N/A Fog Fog
7:10 AM 50.0 °F 48.2 °F 94% 29.84 in 10.0 mi South 3.5 mph - N/A   Clear
7:30 AM 48.2 °F 48.2 °F 100% 29.84 in 7.0 mi South 3.5 mph - N/A   Clear
7:50 AM - - N/A% - 0.2 mi North - - N/A Fog Fog
8:10 AM 50.0 °F 48.2 °F 94% 29.84 in 1.0 mi Calm Calm - N/A   Mist
8:30 AM 53.6 °F 50.0 °F 88% 29.85 in 9.0 mi Calm Calm - N/A   Clear
8:50 AM 55.4 °F 53.6 °F 94% 29.85 in 10.0 mi Calm Calm - N/A   Clear
9:10 AM 57.2 °F 51.8 °F 82% 29.86 in 10.0 mi Calm Calm - N/A   Clear
9:30 AM 59.0 °F 51.8 °F 77% 29.86 in 10.0 mi West 3.5 mph - N/A   Clear
9:50 AM 59.0 °F 51.8 °F 77% 29.86 in 10.0 mi WSW 4.6 mph - N/A   Clear
10:10 AM 60.8 °F 50.0 °F 68% 29.86 in 10.0 mi WSW 5.8 mph - N/A   Clear
10:30 AM 62.6 °F 50.0 °F 63% 29.86 in 10.0 mi SW 5.8 mph - N/A   Clear
10:50 AM 64.4 °F 48.2 °F 56% 29.86 in 10.0 mi WSW 5.8 mph - N/A   Clear
11:10 AM 64.4 °F 48.2 °F 56% 29.86 in 10.0 mi West 8.1 mph - N/A   Clear
11:30 AM 66.2 °F 48.2 °F 52% 29.86 in 10.0 mi WSW 9.2 mph - N/A   Clear
11:50 AM 66.2 °F 50.0 °F 56% 29.86 in 10.0 mi WSW 5.8 mph - N/A   Clear
12:10 PM 66.2 °F 48.2 °F 52% 29.85 in 10.0 mi West 8.1 mph - N/A   Clear
12:30 PM 68.0 °F 48.2 °F 49% 29.84 in 10.0 mi West 6.9 mph - N/A   Clear
12:50 PM 68.0 °F 48.2 °F 49% 29.83 in 10.0 mi SW 11.5 mph 18.4 mph N/A   Clear
1:10 PM 68.0 °F 44.6 °F 43% 29.83 in 10.0 mi West 9.2 mph 18.4 mph N/A   Clear
1:30 PM 68.0 °F 46.4 °F 46% 29.82 in 10.0 mi West 6.9 mph - N/A   Clear
1:50 PM 69.8 °F 46.4 °F 43% 29.81 in 10.0 mi West 6.9 mph - N/A   Clear
2:10 PM 69.8 °F 46.4 °F 43% 29.81 in 10.0 mi WSW 9.2 mph - N/A   Clear
2:30 PM 69.8 °F 42.8 °F 38% 29.80 in 10.0 mi West 11.5 mph 16.1 mph N/A   Clear
2:50 PM 71.6 °F 41.0 °F 33% 29.80 in 10.0 mi West 9.2 mph 17.3 mph N/A   Clear
3:10 PM 71.6 °F 41.0 °F 33% 29.79 in 10.0 mi West 10.4 mph - N/A   Clear
3:30 PM 71.6 °F 39.2 °F 31% 29.79 in 10.0 mi West 8.1 mph - N/A   Clear
3:50 PM 69.8 °F 39.2 °F 33% 29.79 in 10.0 mi West 12.7 mph 16.1 mph N/A   Clear
4:10 PM 69.8 °F 41.0 °F 35% 29.79 in 10.0 mi West 8.1 mph - N/A   Clear
4:30 PM 69.8 °F 41.0 °F 35% 29.79 in 10.0 mi West 8.1 mph - N/A   Clear
4:50 PM 68.0 °F 39.2 °F 35% 29.79 in 10.0 mi West 8.1 mph - N/A   Clear
5:10 PM 68.0 °F 41.0 °F 37% 29.79 in 10.0 mi WSW 6.9 mph - N/A   Clear
5:30 PM 66.2 °F 41.0 °F 40% 29.80 in 10.0 mi WSW 4.6 mph - N/A   Clear
5:50 PM 64.4 °F 42.8 °F 45% 29.80 in 10.0 mi SW 4.6 mph - N/A   Clear
6:10 PM 62.6 °F 44.6 °F 52% 29.81 in 10.0 mi SW 4.6 mph - N/A   Clear
6:30 PM 60.8 °F 44.6 °F 55% 29.82 in 10.0 mi WSW 3.5 mph - N/A   Clear
6:50 PM 59.0 °F 46.4 °F 63% 29.82 in 10.0 mi WSW 4.6 mph - N/A   Clear
7:10 PM 57.2 °F 46.4 °F 67% 29.83 in 10.0 mi WSW 4.6 mph - N/A   Clear
7:30 PM 57.2 °F 46.4 °F 67% 29.84 in 10.0 mi West 3.5 mph - N/A   Clear
7:50 PM 55.4 °F 46.4 °F 72% 29.85 in 10.0 mi West 3.5 mph - N/A   Clear
8:10 PM 57.2 °F 46.4 °F 67% 29.85 in 10.0 mi West 3.5 mph - N/A   Clear
8:30 PM 55.4 °F 46.4 °F 72% 29.85 in 10.0 mi WSW 3.5 mph - N/A   Clear
8:50 PM 51.8 °F 48.2 °F 88% 29.86 in 10.0 mi Calm Calm - N/A   Clear
9:10 PM 51.8 °F 48.2 °F 88% 29.86 in 10.0 mi Calm Calm - N/A   Clear
9:30 PM 50.0 °F 48.2 °F 94% 29.87 in 10.0 mi Calm Calm - N/A   Clear
9:50 PM 50.0 °F 46.4 °F 87% 29.87 in 10.0 mi Calm Calm - N/A   Clear
10:10 PM 50.0 °F 46.4 °F 87% 29.88 in 10.0 mi Calm Calm - N/A   Clear
10:30 PM 50.0 °F 46.4 °F 87% 29.88 in 10.0 mi Calm Calm - N/A   Scattered Clouds
10:50 PM 50.0 °F 48.2 °F 94% 29.88 in 10.0 mi Calm Calm - N/A   Partly Cloudy
11:10 PM 48.2 °F 46.4 °F 93% 29.89 in 10.0 mi Calm Calm - N/A   Mostly Cloudy
11:30 PM 50.0 °F 48.2 °F 94% 29.90 in 10.0 mi WNW 6.9 mph - N/A   Overcast
11:50 PM 55.4 °F 46.4 °F 72% 29.88 in 10.0 mi North 4.6 mph - N/A   Overcast